{"data":{"norad_id":65453,"epoch":"2026-05-25T02:27:52.761600Z","epoch_age_seconds":76921,"freshness":"FRESH","line1":"1 65453U 25194V   26145.10269400  .00002650  00000+0  19182-3 0  9990","line2":"2 65453  97.5140   0.2491 0001749  80.5294 279.6130 15.04837683 41194","mean_motion":15.04837683,"eccentricity":0.0001749,"inclination_deg":97.514,"raan_deg":0.2491,"arg_perigee_deg":80.5294,"mean_anomaly_deg":279.613,"bstar":0.00019182,"rev_number":4119,"period_min":95.691383613498,"perigee_km":550.7918950366,"apogee_km":553.21605835025,"semimajor_km":6930.1409766934,"source":"CELESTRAK","updated_at":"2026-05-25T13:38:20.810137Z"}}